Location: ???????
(55.6372°N, 38.1652°E)
Time: 22:19:41
(UTC+00:00)

Daily predictions for brighter satellites

Satellite Brightness Start Highest point End
(mag) Time Altitude Azimuth Time Altitude Azimuth Time Altitude Azimuth
RESURS DK-1 3.9 13:37:44 10° NNW 13:40:39 18° NNE 13:43:34 10° ENE
CZ-4B R/B 4.5 13:38:21 10° ESE 13:42:16 24° NE 13:46:08 10° N
SL-16 R/B 2.8 13:36:19 10° NNE 13:42:37 78° WNW 13:48:53 10° SSW
Aureole 3 Rocket 3.0 13:37:48 10° N 13:42:55 76° ENE 13:46:39 10° SSE
Cosmos 2297 Rocket 2.3 13:43:15 10° SW 13:48:55 85° NW 13:54:39 10° NE
Cosmos 407 Rocket 4.0 13:44:26 10° NNW 13:49:14 36° NE 13:53:58 10° ESE
Cosmos 1634 Rocket 4.1 13:42:55 10° N 13:49:17 86° E 13:55:37 10° SSE
Cosmos 1953 Rocket 3.6 13:44:57 10° N 13:49:27 80° ENE 13:53:53 10° SSE
Cosmos 1606 2.5 13:45:54 10° S 13:49:32 78° E 13:53:13 10° NNE
USA 305 3.6 13:46:30 10° W 13:50:09 49° SSW 13:53:53 10° SE
Cosmos 2298 Rocket 4.1 13:45:41 10° SSW 13:51:00 82° ESE 13:56:23 10° NNE
SMAP 3.5 13:47:07 10° SE 13:51:28 40° ENE 13:55:50 10° N
Cosmos 1500 3.2 13:50:58 10° N 13:54:24 46° ENE 13:57:49 10° SSE
Cosmos 2219 3.5 13:50:14 10° S 13:55:36 49° ESE 14:01:03 10° NE
Cosmos 2251 Rocket 3.9 13:51:24 10° NNW 13:56:29 42° NE 14:01:34 10° ESE
Helios 1B rocket 2.3 13:53:15 10° SSE 13:57:10 69° ENE 14:01:07 10° NNW
UNK 4.3 13:53:06 10° N 13:57:38 59° WNW 14:02:10 10° SSW
H-2A R/B 3.6 13:54:27 10° SSW 13:59:10 39° W 14:03:49 10° NNW
CZ-4B R/B 4.3 13:56:48 10° SE 14:00:05 33° ENE 14:03:26 10° N
NOSS 3-3 (C) 4.0 13:58:10 10° SW 14:03:57 89° NNW 14:10:42 11° NE
NOSS 3-3 (A) 4.0 13:58:32 10° SW 14:04:17 88° NW 14:11:01 11° NE
Cosmos 2142 Rocket 4.4 13:58:31 10° N 14:04:40 71° ENE 14:10:48 10° SSE
Cosmos 1833 Rocket 4.1 14:02:30 10° NNW 14:06:42 21° NNE 14:10:23 12° ENE
Cosmos 405 Rocket 2.8 14:04:11 10° S 14:07:55 55° E 14:11:43 10° NNE
SJ-11-01 4.3 14:05:16 10° SSE 14:09:55 87° ENE 14:14:37 10° NNW
ISS -0.9 14:07:54 10° WSW 14:10:21 19° SSW 14:12:48 10° SSE
Cosmos 2082 4.2 14:05:37 10° S 14:10:52 42° ESE 14:16:02 11° NE
Cosmos 1862 4.0 14:08:23 10° NNW 14:12:14 56° W 14:16:05 10° S
Cosmos 2279 Rocket 4.0 14:07:00 10° N 14:13:18 86° ENE 14:19:32 10° S
Cosmos 2151 3.0 14:09:34 10° NNW 14:13:53 86° WSW 14:18:08 10° S
COSMO-SKYMED 1 4.3 14:15:04 13° ENE 14:15:31 13° E 14:17:31 10° ESE
Lacrosse 4 Rocket 1.4 14:13:42 10° NW 14:18:07 83° NE 14:22:24 10° SE
Cosmos 1023 Rocket 4.4 14:13:36 10° NNW 14:18:48 68° ENE 14:23:53 10° SE
Cosmos-2242 4.0 14:16:01 10° SE 14:19:35 26° E 14:23:00 11° NNE
Cosmos 1190 Rocket 4.5 14:16:13 10° NNW 14:21:12 39° NE 14:26:09 10° ESE
Cosmos 2058 Rocket 3.1 14:16:54 10° S 14:21:16 62° E 14:25:37 10° NNE
SL-08 RB Rocket 4.3 14:18:12 10° S 14:22:38 61° WSW 14:27:08 10° NNW
Cosmos 1606 Rocket 4.2 14:23:14 10° SSW 14:27:37 57° WNW 14:32:00 10° N
Cosmos 1726 Rocket 3.9 14:24:03 10° SSW 14:28:29 70° WNW 14:32:55 10° N
CZ-2D R/B 3.7 14:27:38 10° S 14:31:17 61° W 14:34:55 10° NNW
YAOGAN 11 4.2 14:30:43 10° NNE 14:35:14 60° ESE 14:39:44 10° S
Cosmos 1812 3.4 14:33:48 10° SSE 14:37:02 30° E 14:38:47 20° NE
Cosmos 2263 Rocket 2.3 14:31:46 10° SSW 14:37:10 55° ESE 14:41:40 15° NE
AQUARIUS 4.1 14:32:50 10° SSE 14:37:16 73° ENE 14:41:45 10° NNW
Cosmos 44 Rocket 4.4 14:32:41 10° NW 14:37:24 32° NNE 14:40:18 19° ENE
Cosmos 1844 Rocket 4.1 14:34:46 10° SE 14:38:04 16° E 14:38:39 16° E
Nadezhda 4 Rocket 4.2 14:32:19 10° SSE 14:38:09 48° E 14:44:00 10° NNE
BREEZE-M DEB (TANK) 4.0 14:34:47 10° SW 14:38:34 55° SSE 14:48:29 16° ENE
Cosmos 2084 4.4 14:36:42 10° WNW 14:40:05 29° N 14:41:59 19° NE
Cosmos 1437 Rocket 4.3 14:36:53 10° NNW 14:40:20 37° W 14:43:49 10° SSW
CORIOLIS 4.2 14:35:37 10° SSE 14:40:59 88° WSW 14:46:25 10° NNW
CZ-2C R/B 3.3 14:39:16 10° S 14:42:47 57° WSW 14:46:23 10° NNW
Meteor 1-20 Rocket 4.1 14:37:49 10° NNW 14:43:23 71° ENE 14:49:01 10° SSE
Cosmos 2082 Rocket 3.8 14:39:41 10° NNW 14:43:34 18° NNE 14:45:41 15° NE
Cosmos 2227 Rocket 2.6 14:39:34 10° SW 14:45:11 63° NW 14:50:24 12° NNE
USA 276 4.1 14:44:48 10° S 14:45:52 12° SSE 14:46:24 12° SE
Cosmos 1140 Rocket 3.5 14:41:09 10° NNW 14:46:23 84° WSW 14:51:33 10° SSE
Cosmos 1766 Rocket 4.4 14:43:17 10° N 14:47:04 27° ENE 14:50:47 10° SE
ATLAS CENTAUR R/B 3.6 14:45:59 10° WNW 14:49:42 42° SSW 14:56:25 10° SE
ADEOS 3.9 14:46:53 10° SE 14:51:47 42° ENE 14:56:41 10° N
ERS-2 4.4 14:49:38 10° SSW 14:51:59 22° W 14:54:21 10° NW
NOSS 8 (A) 4.4 14:50:13 10° SW 14:53:35 53° SE 14:54:27 37° E
YAOGAN 1 3.4 14:52:55 25° E 14:53:48 27° ENE 14:57:27 10° N
Cosmos 1603 3.7 14:48:50 10° NW 14:54:35 86° WSW 15:00:15 10° SSE
DMSP B5D2-2 4.0 14:50:39 10° NNE 14:55:54 81° ESE 15:01:08 10° SSW
Cosmos 1933 4.5 14:54:06 10° SE 14:56:42 24° ESE 14:56:42 24° ESE
Cosmos 1666 3.6 14:55:07 10° NNW 14:58:32 47° W 15:01:57 10° S
CBERS 1 LM4 rocket 4.2 14:57:43 10° SSE 15:02:27 66° ENE 15:07:09 10° NNW
SKYMED 2 4.3 15:03:42 30° E 15:04:10 31° E 15:08:01 10° SSE
Meteor PRIRODA 4.3 15:06:54 32° NNE 15:06:54 32° NNE 15:09:17 10° N
SL-08 R/B 4.4 15:07:56 25° ESE 15:07:56 25° ESE 15:11:01 10° SSE
Meteor 1-31 Rocket 3.6 15:05:54 10° S 15:09:31 51° W 15:13:10 10° NNW
CZ-4B R/B 3.5 15:09:18 34° E 15:09:53 36° ENE 15:13:42 10° N
OPS 6432 4.2 15:07:15 10° NW 15:10:23 52° NNE 15:10:28 52° NE
Cosmos 1607 4.1 15:08:39 10° SW 15:15:03 81° NW 15:19:10 24° NE
Cosmos 676 Rocket 4.1 15:10:00 10° NNW 15:15:15 56° NE 15:19:20 16° SE
ATLAS 2AS CENTAUR R/B 2.6 15:08:34 10° NW 15:15:40 85° NE 15:21:39 14° SE
Cosmos 1943 4.2 15:13:03 10° NW 15:18:26 47° WSW 15:23:48 10° S
RESURS DK-1 2.3 15:15:11 10° NNW 15:19:17 61° NE 15:20:29 41° ESE
CZ-4B R/B 3.6 15:15:27 10° SSE 15:20:30 77° WSW 15:25:27 10° NNW
Helios 1A 2.9 15:22:23 36° NE 15:23:53 62° ESE 15:28:00 10° S
Radarsat Rocket 4.0 15:19:18 10° SSE 15:25:09 87° WSW 15:31:28 10° NNW
SL-16 R/B 4.5 15:20:35 10° N 15:25:24 24° NW 15:30:13 10° W
Cosmos 1812 Rocket 3.4 15:22:16 10° S 15:26:36 79° E 15:29:15 24° NNE
NOAA 6 4.0 15:22:39 10° SSE 15:27:48 85° WSW 15:32:57 10° NNW
Cosmos 1271 Rocket 3.5 15:24:06 10° N 15:26:37 35° NNE 15:26:37 35° NNE
Cosmos 1782 2.9 15:24:18 10° S 15:27:49 52° ESE 15:27:49 52° ESE
Cosmos 407 Rocket 4.2 15:26:24 10° NW 15:31:26 53° WSW 15:36:24 10° S
Cosmos 2297 Rocket 3.7 15:28:52 10° W 15:33:46 29° NNW 15:37:23 16° NNE
Cosmos 2344 3.6 15:26:57 10° SSW 15:34:04 52° SE 15:37:03 34° ENE
CZ-4B DEB 4.2 15:29:14 10° SE 15:34:37 56° ENE 15:40:04 10° NNW
ADEOS Rocket 3.7 15:35:52 30° NE 15:35:52 30° NE 15:40:13 10° N
Cosmos 2219 4.1 15:34:29 10° WSW 15:39:53 45° NW 15:43:29 20° NNE
Cosmos 1741 Rocket 4.4 15:37:12 10° NNW 15:42:03 42° NE 15:42:03 42° NE
Okean 3 Rocket 4.4 15:38:27 10° N 15:41:21 35° NNE 15:41:21 35° NNE
Cosmos 1850 Rocket 4.4 15:38:55 10° NNW 15:43:36 43° NE 15:43:36 43° NE
Timation 2 Rocket 4.2 15:40:00 10° S 15:45:33 42° ESE 15:45:41 42° ESE
Cosmos 1954 Rocket 4.0 15:40:49 10° NNW 15:46:08 84° WSW 15:51:05 12° SSE
Cosmos 220 Rocket 4.4 15:42:41 10° NNW 15:46:58 61° WSW 15:51:10 10° SSE
Cosmos 1844 4.2 15:43:32 10° S 15:48:29 41° ESE 15:48:29 41° ESE
Cosmos 2056 Rocket 4.1 15:44:18 10° S 15:48:24 39° SE 15:48:24 39° SE
S3M 4.1 15:44:41 10° N 15:50:36 47° ENE 15:50:40 46° ENE
USA 234 3.5 15:50:14 40° ESE 15:51:57 49° SE 15:58:16 10° SW
Cosmos 1833 Rocket 2.9 15:46:34 10° NNW 15:52:03 47° NE 15:52:06 47° NE
COSMO-SKYMED 1 2.4 15:52:17 77° ENE 15:52:26 79° ESE 15:56:48 10° SSW
Meteor 1-14 Rocket 4.1 15:47:15 10° N 15:52:45 59° ENE 15:53:31 54° ESE
Cosmos 1553 Rocket 3.9 15:46:23 10° N 15:52:47 75° ENE 15:59:01 10° SSE
Lacrosse 5 2.9 15:48:47 10° SSW 15:52:30 30° SSE 15:52:30 30° SSE
Cosmos 2082 4.4 15:49:27 10° WSW 15:54:56 51° NW 15:57:54 26° NNE
Lacrosse 4 Rocket 4.2 15:52:55 10° WNW 15:55:59 19° WSW 15:59:01 10° SSW
Cosmos-2242 3.9 15:52:33 10° SSW 15:56:45 47° WNW 15:59:41 18° N
SJ 16-02 3.8 15:54:53 10° N 15:54:58 10° N 15:54:58 10° N
Meteor 2-2 Rocket 4.4 15:54:31 10° SSW 16:00:19 76° WNW 16:05:55 12° NNE
PAYLOAD B 4.1 15:59:55 55° ESE 16:00:54 66° ENE 16:06:27 10° NNW
Cosmos 2026 Rocket 4.0 15:59:22 10° SSW 16:05:40 85° W 16:12:06 10° N
COSMOS 2406 4.4 16:00:59 10° NNW 16:04:56 28° NNE 16:04:56 28° NNE
Cosmos 2221 4.3 16:02:53 10° S 16:04:18 21° S 16:04:18 21° S
Cosmos 1818 3.4 16:02:36 10° SW 16:08:01 70° SE 16:08:07 70° ESE
Cosmos 1812 4.4 16:08:51 10° SW 16:12:09 30° WNW 16:13:14 26° NW
IGS 5A 4.4 16:19:28 43° NW 16:19:28 43° NW 16:22:29 10° NNW
CZ-4B R/B 3.4 16:19:50 56° NNE 16:19:50 56° NNE 16:24:25 10° NNW
Cosmos 44 Rocket 3.7 16:14:31 10° NW 16:18:59 57° N 16:18:59 57° N
Cosmos 1844 Rocket 2.7 16:15:28 10° SSW 16:20:21 65° SSE 16:20:21 65° SSE
Meteor 1-26 Rocket 4.1 16:15:29 10° S 16:21:05 87° ESE 16:21:52 68° NNE
Cosmos 2263 Rocket 3.2 16:16:03 10° WSW 16:21:19 41° NW 16:23:22 30° N
Cosmos 1092 Rocket 4.2 16:17:03 10° SSW 16:23:08 66° WNW 16:29:18 10° N
Cosmos 2082 Rocket 3.4 16:24:08 10° NNW 16:27:32 29° N 16:27:32 29° N
YAOGAN 1 3.4 16:29:59 49° W 16:29:59 49° W 16:33:51 10° NNW
Cosmos 2227 Rocket 3.9 16:25:48 10° W 16:30:20 24° NNW 16:32:12 20° N
Cosmos 1417 Rocket 4.5 16:30:52 10° NNW 16:37:11 83° W 16:39:18 45° S
ATLAS 2AS CENTAUR R/B 4.0 16:59:57 10° WNW 17:05:59 33° WSW 17:09:08 22° SSW
Cosmos 2297 Rocket 4.3 17:16:00 10° NW 17:19:11 17° NNW 17:19:11 17° NNW
ADEOS Rocket 4.1 17:22:48 34° NNW 17:22:48 34° NNW 17:26:11 10° NNW
USA 234 4.0 17:37:35 46° WSW 17:37:35 46° WSW 17:41:58 10° WSW
Lacrosse 5 4.3 17:30:42 10° WSW 17:31:43 16° WSW 17:31:43 16° WSW
Cosmos 1833 Rocket 4.3 17:30:38 10° NW 17:33:48 31° WNW 17:33:48 31° WNW
Cosmos 2344 4.0 17:41:05 10° WSW 17:47:04 56° WNW 17:47:04 56° WNW
